Lexington Weather

Lexington, Massachusetts, USA

26°F
12/12/2019 5:03pm 
  • Lexington Conditions: Partly cloudy
  • Temperature: 26.2°F / -3.2°CColder 2.0°F than last hour.
  • Dew Point: 19.8°F 
  • Relative Humidity: 76%Increased 6.0% since last hour.
  • Wind: Wind from WSW WSW 2 mph, 10-min avg: 1 mph, gust: 2 mph
  • Barometer: 30.66 in Steady
  • Visibility: 10 miles
  • Snow Today: 0.0 in
  •   

Regional Weather Roundup
for Boston / Norton, MA

        
000
ASUS41 KBOX 092300
RWRBOX

REGIONAL WEATHER ROUNDUP
NATIONAL WEATHER SERVICE BOSTON/NORTON MA
600 PM EST MON DEC 09 2019

NOTE:  "FAIR" INDICATES FEW OR NO CLOUDS BELOW 12,000 FEET WITH NO 
SIGNIFICANT WEATHER AND/OR OBSTRUCTIONS TO VISIBILITY.

MAZALL-100000-
EASTERN MASSACHUSETTS
  
CITY           SKY/WX    TMP DP  RH WIND       PRES   REMARKS
BOSTON         LGT RAIN  56  51  84 S15       29.86F                  
BEVERLY        CLOUDY    52  50  93 S9        29.85F                  
LAWRENCE       CLOUDY    52  50  93 S9        29.86F                  
BEDFORD        LGT RAIN  51  49  92 S10       29.84F FOG              
BLUE HILL        N/A     53  52  96 S22G31    29.85F                  
NORWOOD        CLOUDY    58  52  80 S10       29.86F                  
MARSHFIELD     NOT AVBL                                               
PLYMOUTH       NOT AVBL                                               
TAUNTON        RAIN      57  53  86 SW8G18    29.89F FOG              
NEW BEDFORD    HVY RAIN  56  55  97 S22G32    29.89F FOG              
$$

MAZALL-100000-
CAPE COD AND THE ISLANDS
  
CITY           SKY/WX    TMP DP  RH WIND       PRES   REMARKS
FALMOUTH       LGT RAIN  55  55 100 S22G30    29.91F                  
HYANNIS        RAIN      54  51  90 S13G24    29.92F FOG              
CHATHAM        LGT RAIN  54  52  93 S15G32    29.95F FOG              
NANTUCKET      LGT RAIN  52  49  89 S21       29.96F FOG              
MARTHAS VNYRD  HVY RAIN  55  53  93 S17G31    29.92F FOG              
$$
 
MAZALL-100000-
CENTRAL AND WESTERN MASSACHUSETTS
  
CITY           SKY/WX    TMP DP  RH WIND       PRES   REMARKS
WORCESTER      LGT RAIN  48  47  96 S14       29.83F                  
FITCHBURG      NOT AVBL                                               
ORANGE         LGT RAIN  49  46  90 S13       29.80F                  
SPRINGFIELD    LGT RAIN  46  46 100 S10       29.79F FOG              
WESTFIELD      LGT RAIN  37  36  96 SW3       29.81S VSB 1            
NORTH ADAMS    LGT RAIN  51  43  74 SW20G37   29.75F                  
PITTSFIELD     LGT RAIN  47  44  90 S14G28    29.75F                  
$$
 
RIZALL-100000-
RHODE ISLAND
  
CITY           SKY/WX    TMP DP  RH WIND       PRES   REMARKS
PROVIDENCE     HVY RAIN  55  55 100 S12       29.89F FOG              
NEWPORT        RAIN      56  53  90 SW8G18    29.90F FOG              
BLOCK ISLAND   RAIN      54  53  97 SW14      29.91S FOG              
SMITHFIELD     LGT RAIN  53  53 100 SW9       29.87F                  
WESTERLY       LGT RAIN  56  53  90 SW6       29.90F FOG              
$$
 
CTZALL-100000-
CONNECTICUT
  
CITY           SKY/WX    TMP DP  RH WIND       PRES   REMARKS
BRADLEY INTL   LGT RAIN  48  46  93 S10       29.82F VSB 3/4          
HARTFORD       LGT RAIN  51  49  92 S12       29.83F FOG              
BRIDGEPORT     RAIN      51  50  96 S9        29.87R FOG              
DANBURY        LGT RAIN  51  49  92 S10       29.84F                  
GROTON         LGT RAIN  51  51 100 SW7       29.89F FOG              
NEW HAVEN      LGT RAIN  53  51  93 S6        29.86F FOG              
CHESTER        LGT RAIN  54  54 100 S10G20    29.86F                  
MERIDEN        LGT RAIN  51  50  96 S10       29.84F                  
WILLIMANTIC    LGT RAIN  52  52 100 S9        29.86F                  
OXFORD         RAIN      50  50 100 SW8       29.85S FOG              
$$

MEZ002-015-021-024-NHZ003-005-008-011-012-014-VTZ005-008-100000-
NORTHERN NEW ENGLAND
  
CITY           SKY/WX    TMP DP  RH WIND       PRES   REMARKS
PORTLAND ME    LGT RAIN  51  47  86 S14G28    29.84F FOG              
BANGOR ME      LGT RAIN  49  48  97 S18G32    29.85F FOG              
CONCORD NH     LGT RAIN  35  35 100 CALM      29.81F VSB 1/2          
MANCHESTER NH  LGT RAIN  49  49 100 S9        29.81F VSB 1/2          
NASHUA NH      LGT RAIN  44  44 100 VRB3      29.83F FOG              
PORTSMOUTH NH  NOT AVBL                                               
JAFFREY NH     LGT RAIN  48  46  93 S12       29.78F                  
KEENE NH       LGT RAIN  36  35  96 N3        29.77F FOG              
BURLINGTON VT  CLOUDY    43  40  89 S10       29.62F                  
MT. WASHINGTON SNOW      32  32 100 SW41G58     N/A  VSB 1/16WCI  16  
$$

NYZ052-076-100000-
EASTERN NEW YORK
  
CITY           SKY/WX    TMP DP  RH WIND       PRES   REMARKS
ALBANY         DRIZZLE   45  41  86 S18G28    29.72F                  
NEW YORK CITY  HVY RAIN  53  50  89 S9        29.84F FOG              
$$
 
ANZALL-100000-
MARINE OBSERVATIONS
  
STATION/POSITION TIME  TEMP    WIND        PRES    VSBY  WAVE
                       AIR SEA DIR/SP/G                  HT/PER
                 (UTC) (F)     (DEG/KT/KT) (MB)    (MI)  (FT/S)
BOSTON BUOY      2150   51 48  160/ 17/ 19 1012.1          4/ 5
BUZZARDS BAY     2200   54     180/ 28/ 32 1012.7F
NANTUCKET SOUND  2240      43              1013.7
MASS BAY-STELLWA 2204   49 46  190/ 17/ 21 1010.7F  1 3/4  6/ 5
ISLE OF SHOALS   2200   50     170/ 29/ 32 1011.0F
S OF BLOCK IS    2230      52                N/A          11/ 9
$$

......................KEY.........................
  SKY/WX - SKY CONDITION/PRESENT WEATHER
  TMP    - TEMPERATURE IN FAHRENHEIT
  DWPT   - DEWPOINT IN FAHRENHEIT
  RH     - RELATIVE HUMIDITY IN PERCENT
  WIND   - DIRECTION AND SPEED IN MPH
  PRES   - MEAN SEA LEVEL PRESSURE IN INCHES OF HG
  WCI    - WIND CHILL INDEX
  VSB    - VISIBILITY IN MILES
  HX     - HEAT INDEX
  TC     - TEMPERATURE IN CELSIUS
  VRB    - VARIABLE WIND DIRECTION
  N/A    - NOT AVAILABLE
  
      

Other recent Regional Weather Roundups

Thu Dec 12, 5:00pm

Thu Dec 12, 4:10pm

Thu Dec 12, 4:01pm

Thu Dec 12, 3:10pm

Thu Dec 12, 3:00pm

Thu Dec 12, 2:10pm

Thu Dec 12, 2:01pm

Thu Dec 12, 1:10pm

Thu Dec 12, 1:00pm

Thu Dec 12, 12:10pm

Thu Dec 12, 12:00pm

Thu Dec 12, 11:10am

Thu Dec 12, 11:00am

Thu Dec 12, 10:10am

Thu Dec 12, 8:10am

Thu Dec 12, 8:00am

Thu Dec 12, 7:10am

Thu Dec 12, 7:00am

Thu Dec 12, 6:10am

Thu Dec 12, 6:00am

Thu Dec 12, 5:10am

Thu Dec 12, 5:00am

Thu Dec 12, 4:10am

Thu Dec 12, 4:00am

Thu Dec 12, 3:10am

Thu Dec 12, 3:00am

Thu Dec 12, 2:10am

Thu Dec 12, 2:00am

Thu Dec 12, 1:10am

Thu Dec 12, 1:00am

Thu Dec 12, 12:10am

Thu Dec 12, 12:00am

Wed Dec 11, 11:10pm

Wed Dec 11, 11:00pm

Wed Dec 11, 10:10pm

Wed Dec 11, 10:00pm

Wed Dec 11, 9:10pm

Wed Dec 11, 9:00pm

Wed Dec 11, 8:10pm

Wed Dec 11, 8:00pm

Wed Dec 11, 7:10pm

Wed Dec 11, 7:00pm

Wed Dec 11, 6:10pm

Wed Dec 11, 6:00pm

Wed Dec 11, 5:10pm

Wed Dec 11, 5:01pm

Wed Dec 11, 4:10pm

Wed Dec 11, 4:00pm

Wed Dec 11, 3:10pm

Wed Dec 11, 3:01pm

Wed Dec 11, 2:10pm

Wed Dec 11, 2:00pm

Wed Dec 11, 1:10pm

Wed Dec 11, 1:00pm

Wed Dec 11, 12:10pm

Wed Dec 11, 12:00pm

Wed Dec 11, 11:10am

Wed Dec 11, 11:00am

Wed Dec 11, 10:10am

Wed Dec 11, 10:00am

Wed Dec 11, 9:10am

Wed Dec 11, 9:00am

Wed Dec 11, 8:10am

Wed Dec 11, 8:00am

Wed Dec 11, 7:10am

Wed Dec 11, 7:00am

Wed Dec 11, 6:10am

Wed Dec 11, 6:00am

Wed Dec 11, 5:10am

Wed Dec 11, 5:00am

Wed Dec 11, 4:10am

Wed Dec 11, 4:00am

Wed Dec 11, 3:10am

Wed Dec 11, 3:01am

Wed Dec 11, 2:10am

Wed Dec 11, 2:01am

Wed Dec 11, 1:10am

Wed Dec 11, 1:00am

Wed Dec 11, 12:10am

Wed Dec 11, 12:00am

Tue Dec 10, 11:10pm

Tue Dec 10, 11:00pm

Tue Dec 10, 10:10pm

Tue Dec 10, 10:00pm

Tue Dec 10, 9:10pm

Tue Dec 10, 9:01pm

Tue Dec 10, 8:10pm

Tue Dec 10, 8:00pm

Tue Dec 10, 7:10pm

Tue Dec 10, 7:01pm

Tue Dec 10, 6:10pm

Tue Dec 10, 6:01pm

Tue Dec 10, 5:10pm

Tue Dec 10, 5:00pm

Tue Dec 10, 4:10pm

Tue Dec 10, 4:01pm

Tue Dec 10, 3:10pm

Tue Dec 10, 3:01pm

Tue Dec 10, 2:10pm

Tue Dec 10, 2:01pm

Tue Dec 10, 1:10pm

Tue Dec 10, 1:00pm

Tue Dec 10, 12:10pm

Tue Dec 10, 12:00pm

Tue Dec 10, 11:10am

Tue Dec 10, 11:00am

Tue Dec 10, 10:10am

Tue Dec 10, 10:00am

Tue Dec 10, 9:10am

Tue Dec 10, 9:01am

Tue Dec 10, 8:10am

Tue Dec 10, 8:00am

Tue Dec 10, 7:10am

Tue Dec 10, 7:00am

Tue Dec 10, 6:10am

Tue Dec 10, 6:00am

Tue Dec 10, 5:10am

Tue Dec 10, 5:00am

Tue Dec 10, 4:10am

Tue Dec 10, 4:00am

Tue Dec 10, 3:10am

Tue Dec 10, 3:00am

Tue Dec 10, 2:10am

Tue Dec 10, 2:01am

Tue Dec 10, 1:10am

Tue Dec 10, 1:00am

Tue Dec 10, 12:10am

Tue Dec 10, 12:01am

Mon Dec 9, 11:10pm

Mon Dec 9, 11:01pm

Mon Dec 9, 10:10pm

Mon Dec 9, 10:00pm

Mon Dec 9, 9:10pm

Mon Dec 9, 9:01pm

Mon Dec 9, 8:10pm

Mon Dec 9, 8:01pm

Mon Dec 9, 7:10pm

Mon Dec 9, 7:00pm

Mon Dec 9, 6:10pm

Mon Dec 9, 5:10pm

Meta data:

ID: 9b3df787-5759-4aa0-ae6f-9c924af868f2
Link: https://api.weather.gov/products/9b3df787-5759-4aa0-ae6f-9c924af868f2